Погода в Соколове

Россия / Курганская область     55°38′31″N   64°04′12″E
темп.,
°C
ветер,
м/с
пор.,
м/с
влажн.,
%
обл.,
%
осадки,
мм/ч
давл.,
гПа
погр.,
м
23 мая, пн
пн2323:00+5юз511895 1.8 1001329
02:00+3юз389466 0.0 1004179
05:00+2ю399315 0.0 1005183
08:00+8ю6976100 0.0 1005592
11:00+10ю6767100 0.1 10041420
14:00+8юв3586100 0.1 1004507
17:00+8вюв3593100 0.3 1004359
20:00+8ююв3796100 0.3 1004319
24 мая, вт
вт2423:00+8ююз3796100 0.3 1005201
02:00+8ю4109797 0.0 1006225
05:00+10ю51395100 0.1 1007379
08:00+11ю41095100 0.9 1008382
11:00+16ююз3673100 1.5 1009759
14:00+20ю5960100 0.8 10091560
17:00+23ююв5105797 1.2 10081693
20:00+19ююв477193 0.0 1009115
25 мая, ср
ср2523:00+16ююв51368100 0.0 1009183
02:00+16ююв61756100 0.0 1009322
05:00+14ююв41265100 0.0 1009190
08:00+17ююв61361100 0.0 1009328
11:00+22ююв7144997 0.0 1009677
14:00+23ююв7125194 0.0 1009977
17:00+25юв6104494 0.0 10081105
20:00+20юв51361100 0.0 1007260
26 мая, чт
чт2623:00+18юв5145624 0.0 1006304
02:00+14юв496997 0.0 1005137
05:00+13всв11709 0.0 100411
08:00+18юв366084 0.0 1003384
11:00+18сз5569100 0.0 1000238
14:00+15зсз81083100 1.3 1001494
17:00+11зсз10168764 4.8 1004701
20:00+9зсз71480100 0.0 1007927
27 мая, пт
пт2723:00+8з613781 0.0 1010367
02:00+6зюз513820 0.0 1012362
05:00+6зюз512855 0.0 1013453
08:00+9з6769100 0.0 10141045
11:00+12з5755100 0.0 10141722
14:00+13зюз4657100 0.0 10151415
17:00+15юз474962 0.0 10141893
20:00+12ю3669100 0.0 1014124